Powrót do katalogu

SCOUT A R/B

AktywnyPO
NORAD 2811·ROCKET BODY·🇺🇸 United States

Wystrzelony May 18, 1967 z Vandenberg Space Force Base

Loading…

Następne Przeloty (najbliższe 24 godziny)

TLE

ŚwieżeSource: Space-Track

Epoka: Sep 14, 2026, 05:09 UTC

1 02811U 67048B   26257.21464561  .00000072  00000-0  97682-4 0  9993
2 02811  89.6838 348.0249 0021488 101.7571 287.0132 13.49340863918519

Śledź SCOUT A R/B w czasie rzeczywistym z AllMySat

Download on the App Store